TimeEST,TemperatureF,Dew PointF,Humidity,Sea Level PressureIn,VisibilityMPH,Wind Direction,Wind SpeedMPH,Gust SpeedMPH,PrecipitationIn,Events,Conditions,WindDirDegrees,DateUTC
12:15 AM,21.2,15.8,80,30.21,10.0,Calm,Calm,-,N/A,,Clear,0,2014-02-12 05:15:00
12:35 AM,21.2,14.0,74,30.21,10.0,Calm,Calm,-,N/A,,Clear,0,2014-02-12 05:35:00
12:55 AM,21.2,14.0,74,30.21,10.0,Calm,Calm,-,N/A,,Clear,0,2014-02-12 05:55:00
1:15 AM,21.2,14.0,74,30.20,10.0,Calm,Calm,-,N/A,,Clear,0,2014-02-12 06:15:00
1:35 AM,21.2,14.0,74,30.19,10.0,Calm,Calm,-,N/A,,Clear,0,2014-02-12 06:35:00
1:55 AM,21.2,17.6,86,30.19,10.0,Calm,Calm,-,N/A,,Clear,0,2014-02-12 06:55:00
2:15 AM,21.2,17.6,86,30.19,10.0,Calm,Calm,-,N/A,,Clear,0,2014-02-12 07:15:00
2:35 AM,21.2,15.8,80,30.18,10.0,NE,3.5,-,N/A,,Clear,50,2014-02-12 07:35:00
2:55 AM,21.2,15.8,80,30.17,10.0,Calm,Calm,-,N/A,,Clear,0,2014-02-12 07:55:00
3:15 AM,23.0,15.8,74,30.17,10.0,Calm,Calm,-,N/A,,Clear,0,2014-02-12 08:15:00
3:35 AM,24.8,14.0,64,30.17,10.0,Calm,Calm,-,N/A,,Clear,0,2014-02-12 08:35:00
3:55 AM,26.6,14.0,59,30.16,10.0,Calm,Calm,-,N/A,,Clear,0,2014-02-12 08:55:00
4:15 AM,26.6,14.0,59,30.16,10.0,Calm,Calm,-,N/A,,Clear,0,2014-02-12 09:15:00
4:35 AM,26.6,14.0,59,30.15,10.0,Calm,Calm,-,N/A,,Clear,0,2014-02-12 09:35:00
4:55 AM,26.6,14.0,59,30.14,10.0,Calm,Calm,-,N/A,,Clear,0,2014-02-12 09:55:00
5:15 AM,26.6,14.0,59,30.14,10.0,Calm,Calm,-,N/A,,Clear,0,2014-02-12 10:15:00
5:35 AM,26.6,14.0,59,30.13,10.0,ESE,3.5,-,N/A,,Clear,120,2014-02-12 10:35:00
5:55 AM,28.4,14.0,55,30.13,10.0,Calm,Calm,-,N/A,,Clear,0,2014-02-12 10:55:00
6:15 AM,28.4,14.0,55,30.12,10.0,Calm,Calm,-,N/A,,Clear,0,2014-02-12 11:15:00
6:35 AM,26.6,14.0,59,30.12,10.0,Calm,Calm,-,N/A,,Clear,0,2014-02-12 11:35:00
6:55 AM,28.4,15.8,59,30.12,10.0,SSE,4.6,-,N/A,,Scattered Clouds,160,2014-02-12 11:55:00
7:15 AM,28.4,15.8,59,30.11,10.0,SE,3.5,-,N/A,,Mostly Cloudy,140,2014-02-12 12:15:00
7:35 AM,28.4,15.8,59,30.12,10.0,SSE,5.8,-,N/A,,Mostly Cloudy,160,2014-02-12 12:35:00
7:55 AM,28.4,17.6,64,30.11,10.0,SSE,8.1,-,N/A,,Scattered Clouds,160,2014-02-12 12:55:00
8:15 AM,28.4,17.6,64,30.11,10.0,SSE,8.1,16.1,N/A,,Mostly Cloudy,160,2014-02-12 13:15:00
8:35 AM,28.4,17.6,64,30.13,10.0,South,10.4,-,N/A,,Overcast,170,2014-02-12 13:35:00
8:55 AM,28.4,17.6,64,30.14,10.0,South,9.2,16.1,N/A,,Overcast,170,2014-02-12 13:55:00
9:15 AM,28.4,17.6,64,30.14,10.0,SSE,8.1,-,N/A,,Overcast,160,2014-02-12 14:15:00
9:35 AM,30.2,17.6,60,30.14,10.0,SSE,9.2,-,N/A,,Overcast,160,2014-02-12 14:35:00
9:55 AM,30.2,17.6,60,30.13,10.0,SSE,8.1,-,N/A,,Overcast,160,2014-02-12 14:55:00
10:15 AM,30.2,17.6,60,30.12,10.0,SSE,9.2,-,N/A,,Overcast,160,2014-02-12 15:15:00
10:35 AM,30.2,17.6,60,30.12,10.0,South,9.2,-,N/A,,Overcast,170,2014-02-12 15:35:00
10:55 AM,30.2,17.6,60,30.12,10.0,SSE,8.1,-,N/A,,Overcast,150,2014-02-12 15:55:00
11:15 AM,32.0,17.6,55,30.11,10.0,SSE,6.9,-,N/A,,Overcast,160,2014-02-12 16:15:00
11:35 AM,30.2,17.6,60,30.10,10.0,SSE,8.1,-,N/A,,Overcast,150,2014-02-12 16:35:00
11:55 AM,32.0,17.6,55,30.10,10.0,South,10.4,-,N/A,,Overcast,170,2014-02-12 16:55:00
12:15 PM,32.0,17.6,55,30.09,10.0,South,8.1,-,N/A,,Overcast,170,2014-02-12 17:15:00
12:35 PM,32.0,17.6,55,30.08,10.0,SSE,10.4,16.1,N/A,,Overcast,160,2014-02-12 17:35:00
12:55 PM,32.0,15.8,51,30.06,10.0,South,10.4,16.1,N/A,,Overcast,170,2014-02-12 17:55:00
1:15 PM,32.0,15.8,51,30.05,10.0,SE,6.9,-,N/A,,Overcast,140,2014-02-12 18:15:00
1:30 PM,32.0,15.8,51,30.04,10.0,South,5.8,-,N/A,,Overcast,170,2014-02-12 18:30:00
1:55 PM,32.0,14.0,48,30.03,10.0,South,8.1,-,N/A,,Overcast,170,2014-02-12 18:55:00
2:15 PM,32.0,14.0,48,30.02,10.0,South,6.9,-,N/A,,Overcast,170,2014-02-12 19:15:00
2:35 PM,32.0,14.0,48,30.02,10.0,SSE,10.4,17.3,N/A,,Overcast,160,2014-02-12 19:35:00
2:55 PM,32.0,14.0,48,30.02,10.0,SSE,6.9,-,N/A,,Overcast,160,2014-02-12 19:55:00
3:15 PM,30.2,21.2,69,30.01,4.0,South,9.2,-,N/A,Snow,Light Snow,170,2014-02-12 20:15:00
3:35 PM,28.4,26.6,93,30.00,0.8,SSE,5.8,-,N/A,Snow,Light Snow,160,2014-02-12 20:35:00
3:50 PM,28.4,28.4,100,29.99,0.8,SSE,3.5,-,N/A,Snow,Light Snow,150,2014-02-12 20:50:00
4:15 PM,28.4,28.4,100,29.99,1.0,ESE,3.5,-,N/A,Snow,Light Snow,120,2014-02-12 21:15:00
4:35 PM,28.4,28.4,100,29.98,1.5,Calm,Calm,-,N/A,Snow,Light Snow,0,2014-02-12 21:35:00
4:55 PM,28.4,28.4,100,29.97,2.5,Calm,Calm,-,0.01,Snow,Light Snow,0,2014-02-12 21:55:00
5:15 PM,28.4,28.4,100,29.96,0.8,East,3.5,-,0.01,Snow,Light Snow,80,2014-02-12 22:15:00
5:35 PM,28.4,28.4,100,29.96,1.5,Calm,Calm,-,0.02,Snow,Light Snow,0,2014-02-12 22:35:00
5:55 PM,28.4,28.4,100,29.95,1.5,NNE,4.6,-,0.02,Snow,Light Snow,20,2014-02-12 22:55:00
6:15 PM,28.4,28.4,100,29.95,1.2,NNE,4.6,-,0.01,Snow,Light Snow,30,2014-02-12 23:15:00
6:35 PM,28.4,28.4,100,29.95,1.0,NE,4.6,-,0.01,Snow,Light Snow,40,2014-02-12 23:35:00
6:55 PM,28.4,28.4,100,29.93,1.0,NNE,5.8,-,0.01,Snow,Snow,30,2014-02-12 23:55:00
7:15 PM,28.4,28.4,100,29.93,1.2,NE,4.6,-,N/A,Snow,Light Snow,50,2014-02-13 00:15:00
7:35 PM,28.4,28.4,100,29.92,1.2,NE,4.6,-,N/A,Snow,Light Snow,50,2014-02-13 00:35:00
7:55 PM,28.4,28.4,100,29.92,0.8,NE,3.5,-,0.01,Snow,Snow,50,2014-02-13 00:55:00
8:15 PM,28.4,28.4,100,29.91,0.5,NE,4.6,-,0.01,Snow,Snow,40,2014-02-13 01:15:00
8:35 PM,28.4,28.4,100,29.91,1.0,NE,4.6,-,0.01,Snow,Snow,40,2014-02-13 01:35:00
8:55 PM,28.4,28.4,100,29.91,0.8,NNE,5.8,-,0.01,Snow,Snow,30,2014-02-13 01:55:00
9:15 PM,28.4,28.4,100,29.91,0.8,North,4.6,-,N/A,Snow,Snow,10,2014-02-13 02:15:00
9:35 PM,28.4,28.4,100,29.89,0.8,NNE,4.6,-,N/A,Snow,Snow,20,2014-02-13 02:35:00
9:55 PM,28.4,28.4,100,29.89,1.0,NNE,4.6,-,0.02,Snow,Snow,30,2014-02-13 02:55:00
10:15 PM,28.4,28.4,100,29.88,0.8,NNE,3.5,-,0.03,Snow,Snow,20,2014-02-13 03:15:00
10:35 PM,28.4,28.4,100,29.87,0.8,NNE,4.6,-,0.05,Snow,Snow,20,2014-02-13 03:35:00
10:55 PM,28.4,28.4,100,29.85,0.8,NE,4.6,-,0.08,Snow,Snow,40,2014-02-13 03:55:00
11:15 PM,28.4,28.4,100,29.84,1.0,NNE,5.8,-,0.02,Snow,Snow,30,2014-02-13 04:15:00
11:35 PM,28.4,28.4,100,29.83,1.0,NE,4.6,-,0.03,Snow,Snow,40,2014-02-13 04:35:00
11:55 PM,28.4,28.4,100,29.82,0.8,NE,4.6,-,0.04,Snow,Snow,40,2014-02-13 04:55:00